This is the latest recevied weather packets stored in our database for station/object KK7DS. If no packets are shown the sender has not sent any weather packets the latest 10 day(s).
| Time | Temp. | Humidity | Pressure | Rain* | Wind** | Luminosity | Snow |
|---|---|---|---|---|---|---|---|
| 1777838043 | 27.22° C | 47% | 1011.1 hPa | 0 mm | - | - | - |
| 1777837523 | 26.67° C | 48% | 1011.3 hPa | 0 mm | - | - | - |
| 1777836996 | 26.11° C | 49% | 1011.3 hPa | 0 mm | - | - | - |
| 1777836450 | 25.56° C | 50% | 1011.5 hPa | 0 mm | - | - | - |
| 1777835870 | 25° C | 52% | 1011.5 hPa | 0 mm | - | - | - |
| 1777835285 | 24.44° C | 52% | 1011.6 hPa | 0 mm | - | - | - |
| 1777834739 | 23.89° C | 53% | 1011.7 hPa | 0 mm | - | - | - |
| 1777834157 | 23.89° C | 55% | 1011.9 hPa | 0 mm | - | - | - |
| 1777833074 | 23.33° C | 55% | 1012 hPa | 0 mm | - | - | - |
| 1777832485 | 23.33° C | 54% | 1012.1 hPa | 0 mm | - | - | - |
| 1777831945 | 22.78° C | 58% | 1012.1 hPa | 0 mm | - | - | - |
| 1777831386 | 21.67° C | 60% | 1012.2 hPa | 0 mm | - | - | - |
| 1777830875 | 21.67° C | 62% | 1012.2 hPa | 0 mm | - | - | - |
| 1777830287 | 21.11° C | 64% | 1012.4 hPa | 0 mm | - | - | - |
| 1777829735 | 21.11° C | 64% | 1012.4 hPa | 0 mm | - | - | - |
| 1777829218 | 20.56° C | 65% | 1012.4 hPa | 0 mm | - | - | - |
| 1777828659 | 20.56° C | 67% | 1012.5 hPa | 0 mm | - | - | - |
| 1777828070 | 20° C | 69% | 1012.4 hPa | 0 mm | - | - | - |
| 1777827505 | 19.44° C | 68% | 1012.4 hPa | 0 mm | - | - | - |
| 1777826915 | 18.89° C | 70% | 1012.5 hPa | 0 mm | - | - | - |
| 1777825893 | 18.89° C | 70% | 1012.6 hPa | 0 mm | - | - | - |
| 1777825329 | 18.33° C | 69% | 1012.7 hPa | 0 mm | - | - | - |
| 1777824810 | 18.33° C | 71% | 1012.6 hPa | 0 mm | - | - | - |
| 1777824308 | 17.78° C | 72% | 1012.7 hPa | 0 mm | - | - | - |
| 1777823730 | 17.22° C | 77% | 1012.7 hPa | 0 mm | - | - | - |
* Rain latest hour (hover to see other rain measurements)
** Current wind speed in m/s (hover to see current wind gust speed)